TAPIOLES Weather Reports


time (UTC)temp
F
wind
direction
speed
knots
gust
knots
rain 1hr
in
rain 24hr
in
rain mn
in
humidity
%
barometer
mb
20260510041508 47 27 1.7 1.7 0.00 0.50 0.01 99 1013.9
20260510040009 48 337 0.9 3.5 0.00 0.50 0.01 99 1014.0
20260510034508 48 0 0.0 0.0 0.00 0.50 0.01 99 1014.0
20260510031509 49 270 0.0 1.7 0.00 0.50 0.01 99 1014.2
20260510030009 49 270 0.0 1.7 0.00 0.50 0.01 99 1014.2
20260510020009 50 327 1.7 3.5 0.00 0.50 0.01 99 1014.1
20260510014508 50 291 1.7 1.7 0.00 0.50 0.01 99 1014.2
20260510011508 51 289 0.9 1.7 0.00 0.50 0.01 99 1014.7
20260510004508 52 351 0.0 1.7 0.00 0.50 0.01 99 1015.1
20260510001509 53 294 0.9 1.7 0.00 0.50 0.01 99 1015.5
20260510000009 53 304 0.0 1.7 0.00 0.50 0.01 99 1015.7
20260509234508 53 278 0.0 1.7 0.00 0.50 0.01 99 1015.9
20260509233008 53 266 0.0 1.7 0.00 0.50 0.01 99 1016.1
20260509231508 53 314 0.0 1.7 0.01 0.50 0.01 99 1016.4
20260509230009 53 285 1.7 3.5 0.01 0.50 0.01 99 1016.5
20260509224509 54 273 1.7 3.5 0.01 0.50 0.01 99 1016.5
20260509223010 54 313 0.9 1.7 0.01 0.50 0.01 99 1016.7
20260509221508 54 0 0.0 0.0 0.00 0.48 0.00 99 1016.5
20260509220011 54 248 0.0 1.7 0.00 0.48 0.00 99 1016.6
20260509214509 54 304 0.0 1.7 0.01 0.48 0.48 99 1016.4
20260509213008 54 6 0.9 1.7 0.01 0.48 0.48 99 1016.5
20260509211508 54 349 1.7 3.5 0.02 0.48 0.48 99 1016.3
20260509210009 54 322 0.0 1.7 0.02 0.48 0.48 99 1016.2
20260509204508 54 318 0.9 1.7 0.01 0.47 0.47 99 1016.1
20260509203008 54 333 0.9 3.5 0.02 0.47 0.47 99 1015.5
20260509201508 54 283 0.9 1.7 0.02 0.46 0.46 99 1015.3
20260509200009 54 273 0.9 1.7 0.05 0.46 0.46 99 1015.4
20260509194508 54 280 0.9 1.7 0.07 0.46 0.46 99 1015.1
20260509193009 54 251 0.0 1.7 0.09 0.45 0.45 99 1014.8
20260509191508 54 244 0.0 1.7 0.15 0.44 0.44 99 1014.3
20260509190009 54 240 1.7 1.7 0.17 0.41 0.41 99 1014.4
20260509181508 54 145 1.7 1.7 0.17 0.28 0.28 99 1015.6
20260509180008 55 45 0.0 1.7 0.18 0.24 0.24 99 1015.5
20260509173008 56 88 0.9 3.5 0.15 0.15 0.15 99 1015.7
20260509171508 57 331 1.7 1.7 0.12 0.12 0.12 99 1015.7
20260509170008 57 118 1.7 3.5 0.05 0.05 0.05 99 1015.9
20260509163008 58 153 4.3 7.0 0.00 0.00 0.00 97 1015.3
20260509161508 59 138 3.5 7.8 0.00 0.00 0.00 95 1014.7
20260509160008 60 127 4.3 6.1 0.00 0.00 0.00 92 1014.6
20260509154507 60 115 2.6 6.1 0.00 0.00 0.00 91 1014.8
20260509153009 61 119 4.3 7.8 0.00 0.00 0.00 90 1014.9
20260509151508 61 113 5.2 9.6 0.00 0.00 0.00 90 1015.0
20260509150008 62 133 3.5 5.2 0.00 0.00 0.00 84 1015.8
20260509144508 64 121 0.9 1.7 0.00 0.00 0.00 80 1015.3
20260509143008 64 138 0.9 3.5 0.00 0.00 0.00 81 1016.0
20260509141508 63 119 3.5 7.0 0.00 0.00 0.00 83 1016.1
20260509140008 63 117 1.7 7.0 0.00 0.00 0.00 83 1015.9
20260509131508 63 105 0.0 3.5 0.00 0.00 0.00 85 1015.9
20260509124507 61 100 5.2 9.6 0.00 0.00 0.00 87 1016.4
20260509121508 62 103 7.0 9.6 0.00 0.00 0.00 84 1017.1
20260509120008 62 115 9.6 13.0 0.00 0.00 0.00 83 1017.2
20260509113008 64 113 6.1 12.2 0.00 0.00 0.00 78 1017.1
20260509110008 63 109 7.0 12.2 0.00 0.00 0.00 80 1017.2
20260509104507 64 106 7.0 11.3 0.00 0.00 0.00 77 1017.1
20260509103008 65 90 3.5 11.3 0.00 0.00 0.00 72 1017.6
20260509101507 65 103 5.2 11.3 0.00 0.00 0.00 67 1017.1
20260509094507 66 102 2.6 5.2 0.00 0.00 0.00 70 1017.1
20260509093008 67 210 0.9 5.2 0.00 0.00 0.00 69 1016.9
20260509084508 64 55 0.9 3.5 0.00 0.00 0.00 75 1016.7
20260509083008 62 122 1.7 1.7 0.00 0.00 0.00 81 1017.0
20260509081507 60 194 0.9 3.5 0.00 0.00 0.00 85 1017.2
20260509074507 60 89 0.0 1.7 0.00 0.00 0.00 83 1017.0
20260509073008 59 333 0.0 1.7 0.00 0.00 0.00 87 1017.4
20260509071507 57 297 0.9 1.7 0.00 0.00 0.00 92 1017.4
20260509070007 55 279 1.7 1.7 0.00 0.00 0.00 96 1017.5
20260509064508 54 270 0.0 1.7 0.00 0.00 0.00 97 1017.4
20260509063007 53 287 0.0 1.7 0.00 0.00 0.00 99 1017.5
20260509061507 51 231 0.0 3.5 0.00 0.00 0.00 99 1017.6
20260509060008 50 257 0.9 3.5 0.00 0.00 0.00 99 1017.8
20260509054507 49 268 0.0 1.7 0.00 0.00 0.00 99 1017.6
20260509053007 49 294 0.0 1.7 0.00 0.00 0.00 99 1017.6
20260509051507 49 19 0.9 1.7 0.00 0.00 0.00 99 1017.5
20260509044507 49 298 1.7 3.5 0.00 0.00 0.00 99 1017.1
20260509043008 48 245 0.9 1.7 0.00 0.00 0.00 99 1016.9